Back to catalog

FENGYUN 1C DEB

LostPO
NORAD 35170·DEBRIS·🇨🇳 China

Launched May 10, 1999 from Taiyuan Satellite Launch Center

Loading…

Next Passes (next 24 hours)

TLE

StaleSource: Space-Track

Epoch: Sep 22, 2022, 04:06 UTC

1 35170U 99025DNA 22265.17107112  .00002140  00000-0  12776-2 0  9990
2 35170  99.8551  45.1504 0104602 291.9255  67.0817 14.05803684739928

Track FENGYUN 1C DEB in real time with AllMySat

Download on the App Store